TimeEDT,TemperatureF,Dew PointF,Humidity,Sea Level PressureIn,VisibilityMPH,Wind Direction,Wind SpeedMPH,Gust SpeedMPH,PrecipitationIn,Events,Conditions,WindDirDegrees,DateUTC
12:15 AM,47.3,40.3,77,29.98,10.0,Calm,Calm,-,N/A,,Clear,0,2014-03-23 04:15:00
12:35 AM,48.0,40.5,75,29.97,10.0,Calm,Calm,-,N/A,,Clear,0,2014-03-23 04:35:00
12:55 AM,46.0,40.3,80,29.97,10.0,Calm,Calm,-,N/A,,Clear,0,2014-03-23 04:55:00
1:15 AM,43.2,38.7,84,29.97,10.0,Calm,Calm,-,N/A,,Clear,0,2014-03-23 05:15:00
1:35 AM,45.3,39.6,80,29.97,10.0,Calm,Calm,-,N/A,,Clear,0,2014-03-23 05:35:00
1:55 AM,42.3,38.5,86,29.98,10.0,Calm,Calm,-,N/A,,Clear,0,2014-03-23 05:55:00
2:15 AM,41.0,38.5,91,29.98,10.0,Calm,Calm,-,N/A,,Clear,0,2014-03-23 06:15:00
2:35 AM,42.1,39.0,89,29.98,10.0,Calm,Calm,-,N/A,,Clear,0,2014-03-23 06:35:00
2:55 AM,41.5,38.5,89,29.98,10.0,Calm,Calm,-,N/A,,Clear,0,2014-03-23 06:55:00
3:15 AM,40.3,37.8,91,29.98,10.0,Calm,Calm,-,N/A,,Clear,0,2014-03-23 07:15:00
3:35 AM,39.7,37.9,93,29.98,10.0,Calm,Calm,-,N/A,,Clear,0,2014-03-23 07:35:00
3:55 AM,39.0,37.6,95,29.97,10.0,Calm,Calm,-,N/A,,Clear,0,2014-03-23 07:55:00
4:15 AM,38.1,36.9,95,29.97,7.0,Calm,Calm,-,N/A,,Clear,0,2014-03-23 08:15:00
4:35 AM,37.8,36.9,97,29.96,7.0,Calm,Calm,-,N/A,,Clear,0,2014-03-23 08:35:00
4:55 AM,37.2,36.3,97,29.97,7.0,Calm,Calm,-,N/A,,Clear,0,2014-03-23 08:55:00
5:15 AM,36.5,35.8,97,29.97,7.0,Calm,Calm,-,N/A,,Clear,0,2014-03-23 09:15:00
5:35 AM,36.5,36.0,98,29.97,7.0,Calm,Calm,-,N/A,,Clear,0,2014-03-23 09:35:00
5:55 AM,35.8,35.4,99,29.97,7.0,Calm,Calm,-,N/A,,Clear,0,2014-03-23 09:55:00
6:15 AM,38.5,36.5,93,29.99,10.0,NNE,3.5,-,N/A,,Scattered Clouds,30,2014-03-23 10:15:00
6:35 AM,37.9,35.1,89,30.00,10.0,NE,3.5,-,N/A,,Mostly Cloudy,50,2014-03-23 10:35:00
6:55 AM,39.2,36.0,88,30.00,10.0,Calm,Calm,-,N/A,,Mostly Cloudy,0,2014-03-23 10:55:00
7:15 AM,40.1,37.6,91,30.01,10.0,Calm,Calm,-,N/A,,Overcast,0,2014-03-23 11:15:00
7:35 AM,39.9,38.1,93,30.01,10.0,Calm,Calm,-,N/A,,Mostly Cloudy,0,2014-03-23 11:35:00
7:55 AM,41.0,39.0,93,30.01,10.0,NE,4.6,-,N/A,,Mostly Cloudy,40,2014-03-23 11:55:00
8:15 AM,47.5,33.8,59,30.02,10.0,NNE,4.6,-,N/A,,Scattered Clouds,30,2014-03-23 12:15:00
8:35 AM,49.5,33.3,54,30.01,10.0,NE,4.6,-,N/A,,Clear,40,2014-03-23 12:35:00
8:55 AM,50.4,32.7,51,30.02,10.0,NE,4.6,-,N/A,,Scattered Clouds,50,2014-03-23 12:55:00
9:15 AM,51.4,32.9,49,30.03,10.0,NNE,4.6,-,N/A,,Scattered Clouds,30,2014-03-23 13:15:00
9:35 AM,51.8,32.0,47,30.02,10.0,NE,8.1,-,N/A,,Mostly Cloudy,50,2014-03-23 13:35:00
9:55 AM,51.3,32.2,48,30.04,10.0,NNE,9.2,-,N/A,,Overcast,20,2014-03-23 13:55:00
10:15 AM,50.2,32.0,50,30.05,10.0,NNE,5.8,-,N/A,,Overcast,30,2014-03-23 14:15:00
10:35 AM,50.4,32.4,50,30.07,10.0,NE,3.5,-,N/A,,Overcast,40,2014-03-23 14:35:00
10:55 AM,50.4,32.2,50,30.08,10.0,NNE,5.8,-,N/A,,Overcast,20,2014-03-23 14:55:00
11:15 AM,50.0,32.2,50,30.08,10.0,NNE,5.8,-,N/A,,Overcast,30,2014-03-23 15:15:00
11:35 AM,49.3,33.8,55,30.09,10.0,NNE,3.5,-,N/A,Rain,Light Rain,20,2014-03-23 15:35:00
11:55 AM,46.8,37.8,71,30.10,7.0,North,6.9,-,N/A,Rain,Rain,10,2014-03-23 15:55:00
12:15 PM,43.3,40.1,88,30.10,5.0,NNE,3.5,-,0.02,Rain,Rain,20,2014-03-23 16:15:00
12:35 PM,43.7,41.5,92,30.08,4.0,NE,3.5,-,0.06,Rain,Rain,40,2014-03-23 16:35:00
12:55 PM,43.9,42.1,93,30.07,5.0,NNE,4.6,-,0.08,Rain,Rain,20,2014-03-23 16:55:00
1:15 PM,43.7,41.4,91,30.06,7.0,NNE,3.5,-,0.01,Rain,Rain,30,2014-03-23 17:15:00
1:35 PM,43.5,41.5,93,30.05,7.0,NE,4.6,-,0.02,Rain,Light Rain,40,2014-03-23 17:35:00
1:55 PM,43.5,41.9,94,30.04,7.0,NNE,4.6,-,0.02,Rain,Light Rain,20,2014-03-23 17:55:00
2:15 PM,43.7,42.3,95,30.04,7.0,NE,3.5,-,N/A,Rain,Light Rain,40,2014-03-23 18:15:00
2:35 PM,43.9,42.4,95,30.03,7.0,Calm,Calm,-,N/A,,Overcast,0,2014-03-23 18:35:00
2:55 PM,43.7,42.3,95,30.03,7.0,Calm,Calm,-,N/A,,Overcast,0,2014-03-23 18:55:00
3:15 PM,44.4,43.0,95,30.03,7.0,Calm,Calm,-,N/A,,Overcast,0,2014-03-23 19:15:00
3:40 PM,44.6,43.0,94,30.03,10.0,Calm,Calm,-,N/A,,Overcast,0,2014-03-23 19:40:00
3:55 PM,44.6,42.1,91,30.03,10.0,Calm,Calm,-,N/A,,Overcast,0,2014-03-23 19:55:00
4:15 PM,44.8,41.9,90,30.03,10.0,Calm,Calm,-,N/A,,Overcast,0,2014-03-23 20:15:00
4:35 PM,45.0,41.7,88,30.02,10.0,Calm,Calm,-,N/A,,Overcast,0,2014-03-23 20:35:00
4:55 PM,45.1,41.0,85,30.01,10.0,Calm,Calm,-,N/A,,Overcast,0,2014-03-23 20:55:00
5:15 PM,46.0,40.1,80,30.01,10.0,Calm,Calm,-,N/A,,Mostly Cloudy,0,2014-03-23 21:15:00
5:35 PM,47.5,38.7,71,30.01,10.0,Calm,Calm,-,N/A,,Scattered Clouds,0,2014-03-23 21:35:00
5:55 PM,47.7,37.6,68,30.01,10.0,Calm,Calm,-,N/A,,Clear,0,2014-03-23 21:55:00
6:15 PM,48.2,36.7,64,30.02,10.0,NNW,3.5,-,N/A,,Clear,330,2014-03-23 22:15:00
6:35 PM,48.2,35.4,61,30.02,10.0,Calm,Calm,-,N/A,,Clear,0,2014-03-23 22:35:00
6:55 PM,47.8,35.1,61,30.02,10.0,Calm,Calm,-,N/A,,Clear,0,2014-03-23 22:55:00
7:15 PM,43.5,37.9,81,30.03,10.0,Calm,Calm,-,N/A,,Clear,0,2014-03-23 23:15:00
7:35 PM,40.8,37.4,88,30.04,10.0,Calm,Calm,-,N/A,,Clear,0,2014-03-23 23:35:00
7:55 PM,39.2,37.6,94,30.05,7.0,Calm,Calm,-,N/A,,Clear,0,2014-03-23 23:55:00
8:15 PM,38.1,35.8,91,30.06,10.0,Calm,Calm,-,N/A,,Clear,0,2014-03-24 00:15:00
8:35 PM,41.0,32.4,71,30.07,10.0,NNW,4.6,-,N/A,,Clear,340,2014-03-24 00:35:00
8:55 PM,44.2,28.8,55,30.08,10.0,North,4.6,-,N/A,,Clear,350,2014-03-24 00:55:00
9:15 PM,43.5,28.4,55,30.10,10.0,North,4.6,-,N/A,,Clear,360,2014-03-24 01:15:00
9:35 PM,43.5,27.9,54,30.11,10.0,North,5.8,-,N/A,,Clear,360,2014-03-24 01:35:00
9:55 PM,43.7,26.8,51,30.12,10.0,North,5.8,-,N/A,,Clear,360,2014-03-24 01:55:00
10:15 PM,43.2,25.9,51,30.13,10.0,North,5.8,-,N/A,,Clear,360,2014-03-24 02:15:00
10:35 PM,42.4,25.3,51,30.14,10.0,North,4.6,-,N/A,,Clear,350,2014-03-24 02:35:00
10:55 PM,41.9,25.2,52,30.15,10.0,North,4.6,-,N/A,,Clear,360,2014-03-24 02:55:00
11:15 PM,41.4,23.7,50,30.15,10.0,North,5.8,-,N/A,,Clear,350,2014-03-24 03:15:00
11:35 PM,40.5,23.7,51,30.16,10.0,North,4.6,-,N/A,,Clear,350,2014-03-24 03:35:00
11:55 PM,40.3,23.5,51,30.17,10.0,North,4.6,-,N/A,,Clear,360,2014-03-24 03:55:00